STARLINK-36474, 67353

Orbit data source: Space-Track

STARLINK-36474, 67353 is a payload satellite owned by SpaceX/Seattle (US) in LEO that was launched on Fri, 09 Jan 2026 UTC via an FALCON 9 launch vehicle from the Air Force Eastern Test Range (AFETR). Payload-class satellites include a variety of spacecraft equipped with specific instruments for various scientific and technological missions. These include communications satellites like Starlink; space stations such as the ISS; scientific satellites like the Hubble; Earth observation satellites from companies like Planet Labs, Umbra, and HawkEye 360; GPS; miniature CubeSats for education and research; and military/defense satellites.

Loading next visibility...
Identifier
67353, 2026-003V
Orbit
LEO
Country
Flag of USUS
Related business
Manufacturer
SpaceX/Seattle
Mission
Operational Commercial Communications
Bus & Motor
STARLINK V2MO, Unknown motor
Mass
575 kg wet, ~530 kg dry
Launch date (UTC)
2026-01-09 (5 months ago)
Launch vehicle
FALCON 9
Launch site
Air Force Eastern Test Range (AFETR)
Object type
Payload
Rocket body
Debris
Shape & HBR
Box + 2 Pan, 17.7 m
Radar Cross Section
36.964 m², Large (>1 m²)

Expand to show TLE details & history
Last TLE update: 2 days ago

TLE from 2 days ago
0 STARLINK-36474
1 67353U 26003V   26170.26367004  .00022287  00000-0  81703-3 0  9992
2 67353  43.0008  13.8373 0000402 316.4683  43.6137 15.27577572 24359
Epoch: 2026-06-19T06:19Z
TLE epoch observation values (Epoch: 2026-06-19T06:19:41.091Z)
Latitude
-0.00001°
Longitude
11.42093°
Altitude
482.632 km
Speed
7.626 km/s
True Right ascension
00h 55m 20s
True Declination
0° 00' 00"
Sunlit
Object was in daylight at epoch
Visualization orbit readout
Latitude
Unknown
Longitude
Unknown
Altitude
Unknown
Speed
Unknown
Apparent Right ascension
Unknown
Apparent Declination
Unknown
Sunlit
N/A
Visualization observer readout
Local Sidereal Time
10:19:48
Azimuth
Unknown
Elevation
Unknown
Doppler factor
Unknown
Orbital elements
Apogee altitude
485.277 km
Perigee altitude
484.726 km
Semi-major axis
6,863.138 km
Eccentricity
0.00004
Inclination
43.0008°
RAAN
13.8373°
Arg. of periapsis
316.4683°
True anomaly
43.61688°
Mean anomaly
43.6137°
Eccentric anomaly
43.61529°
Mean motion
3.81732 °/min
Orbital period
94.31 mins
BSTAR
0.00081703
Loading maneuver chart data...
Computing Atmospheric mass density...
Loading historical data...
Loading historical data...
Loading historical data...
Loading historical data...
Loading historical data...
Loading historical data...
Loading historical data...

Documentation

Showing up to 5 results
|